Wind_Speed
7 6 6 7 7 8 9 10 12 13 13 18 14 12 13 15 12 11 11 11 13 21 14 13 12 12 14 16 17 17 20 22 24 25 24 23 23 26 29 34 37 38 36 38
7 8 7 7 8 8 10 12 11 12 16 17 16 17 16 13 9 9 11 11 13 19 11 11 12 12 13 15 15 17 20 21 24 24 23 24 26 27 31 34 37 35 36 39
8 7 7 8 8 9 10 13 11 15 18 14 13 11 5 5 6 8 9 11 13 16 10 11 11 12 13 14 15 18 19 22 22 21 22 24 23 24 27 31 37 36 35 35
7 6 7 7 8 9 11 10 14 16 15 6 11 7 6 5 7 7 8 10 12 12 9 10 10 11 13 13 15 17 19 21 20 21 22 23 22 24 29 33 37 36 34 33
6 7 7 8 9 9 9 13 15 17 10 10 4 5 4 7 10 9 12 11 11 9 8 9 8 10 12 12 15 16 18 18 19 20 22 23 23 25 28 31 34 36 34 32
10 9 8 6 8 9 10 12 16 8 7 3 2 5 4 8 12 12 13 11 9 6 8 8 8 9 10 11 14 16 17 17 18 20 21 23 23 24 26 28 31 33 34 32
7 9 9 8 8 7 6 11 5 3 3 4 6 8 5 10 12 14 15 11 6 5 6 7 7 8 9 11 13 15 16 16 17 19 20 22 24 25 27 27 29 31 31 32
6 4 4 4 5 5 8 4 2 3 2 7 11 5 6 11 13 15 16 11 4 4 6 6 6 7 8 10 12 14 14 14 16 18 20 22 24 25 26 27 29 30 32 32
3 4 5 7 7 5 2 2 4 3 4 4 5 7 10 8 15 15 16 11 4 4 6 5 5 7 7 9 10 12 13 14 16 18 20 22 23 25 26 27 29 29 29 30
6 5 7 6 6 7 7 4 2 1 1 4 7 9 8 11 16 16 16 12 4 4 5 4 4 6 7 9 9 11 12 14 15 16 18 20 22 24 25 26 27 27 28 28
10 7 5 6 5 5 5 5 3 2 2 4 2 7 7 15 17 19 17 13 6 3 4 3 4 5 6 8 8 10 11 12 12 14 17 20 21 23 25 26 27 27 27 28
11 6 7 10 10 10 10 10 9 4 4 6 3 10 5 16 19 21 19 13 7 3 3 3 4 4 6 7 7 9 10 11 12 14 17 19 21 22 23 25 26 27 27 28
6 6 4 4 6 6 8 7 11 13 12 11 4 7 13 19 19 23 20 14 7 4 3 3 4 4 5 7 6 8 9 11 12 13 16 18 20 20 21 23 24 26 28 28
14 15 14 11 12 15 15 16 14 16 11 12 25 27 15 15 21 21 18 15 7 4 3 4 4 4 4 6 6 7 10 10 11 13 15 16 17 18 19 21 23 25 26 27
12 17 19 19 19 21 23 23 23 27 27 24 29 27 9 16 17 16 16 14 7 3 3 4 4 5 4 5 5 5 8 10 10 11 12 14 15 16 19 21 23 24 26 27
16 18 20 24 22 25 29 27 29 31 34 35 32 24 11 10 12 13 15 13 9 3 3 4 6 5 6 4 4 4 5 8 9 10 11 12 14 15 17 19 21 23 25 26
17 16 16 13 17 18 25 22 17 22 23 24 26 9 13 12 12 12 13 13 10 5 3 3 6 5 6 5 4 3 2 3 5 7 8 10 12 14 16 18 20 22 24 24
23 20 16 10 16 4 13 10 12 20 19 14 12 11 14 14 12 12 12 12 11 7 4 3 5 6 5 6 5 5 4 3 3 5 7 8 11 13 15 17 18 20 22 23
24 21 13 7 9 22 32 26 14 14 17 21 17 12 13 13 13 10 12 10 10 8 7 5 5 6 6 6 6 6 6 6 6 6 7 9 11 13 15 16 18 19 21 22
27 27 24 13 5 6 5 7 12 21 22 9 10 11 11 12 13 10 10 10 9 9 8 7 6 7 7 7 7 7 8 8 9 9 10 11 12 14 15 16 17 18 19 20
19 29 32 30 16 19 27 31 27 10 8 5 5 8 10 11 11 11 11 11 9 8 9 9 7 8 10 9 8 8 9 10 10 11 12 13 14 15 16 17 17 17 18 19
21 15 15 21 14 16 20 17 14 9 6 9 15 11 10 12 12 12 11 11 11 9 8 9 9 10 10 11 10 10 10 11 12 12 13 14 15 16 17 18 19 20 20 21
34 34 19 18 8 8 2 4 9 9 12 14 14 13 14 14 14 13 13 12 12 12 10 9 11 12 12 12 12 12 15 13 13 14 14 15 16 16 17 19 20 21 22 23
31 29 33 33 34 30 25 17 13 23 21 19 17 16 16 17 16 15 14 13 13 13 12 11 11 12 14 14 14 16 16 16 15 15 15 16 17 18 18 19 20 21 23 24
29 30 34 37 35 29 26 25 20 15 18 22 20 19 19 19 18 18 17 15 15 14 14 13 13 13 14 16 16 17 18 18 18 18 18 18 18 20 21 21 22 22 23 24
37 38 34 35 30 32 29 23 19 14 12 11 15 16 17 19 20 20 18 17 16 15 15 14 14 14 16 15 17 19 19 19 20 20 20 20 20 21 23 24 24 25 25 26
Wind_Direction
292 289 279 310 319 328 323 322 318 321 322 323 316 309 290 296 301 311 301 312 328 341 337 337 335 338 346 346 348 349 349 348 349 347 346 347 349 347 350 347 346 347 347 342
285 287 283 296 318 322 321 323 320 321 324 323 312 311 298 297 310 305 297 304 324 339 333 336 338 344 344 346 351 351 349 351 351 350 355 357 356 358 355 354 352 352 353 350
277 280 283 294 312 317 320 318 317 317 322 321 326 319 340 331 340 306 302 305 324 338 331 337 341 342 346 349 354 350 350 354 354 0 1 1 2 1 359 360 1 359 359 358
282 273 277 290 298 314 316 315 315 316 322 311 326 300 319 352 349 329 319 314 326 335 329 337 342 345 347 351 353 351 356 356 359 3 2 4 5 3 5 7 8 5 4 2
281 282 284 287 294 307 310 315 314 314 310 310 313 306 293 341 354 352 344 334 332 333 331 337 342 347 350 353 352 353 357 359 3 5 6 9 8 6 9 11 12 11 7 4
269 271 281 276 286 300 313 320 315 310 315 304 298 339 282 343 352 347 347 348 342 332 332 335 342 349 351 353 353 353 358 2 4 7 9 11 10 10 12 13 15 16 14 9
271 265 266 265 281 296 320 335 329 336 352 237 302 298 306 334 344 347 351 353 343 322 330 336 338 351 350 353 352 354 1 4 5 8 10 12 11 13 13 13 16 19 18 15
273 267 242 248 260 287 315 349 5 283 299 292 296 256 319 326 345 354 350 352 339 325 326 329 336 349 349 350 353 357 2 3 6 8 10 12 11 13 13 13 14 16 17 16
254 264 249 259 271 286 292 303 314 264 298 305 282 295 318 342 351 357 353 352 338 320 324 319 333 343 346 350 353 357 3 6 10 10 11 14 12 13 13 12 13 15 15 15
258 274 272 264 270 266 256 273 307 283 104 295 290 296 307 339 348 355 357 353 340 320 321 305 328 339 344 348 354 0 6 9 11 11 12 14 15 16 15 15 15 14 15 15
240 250 275 272 249 265 251 248 233 258 220 173 304 300 318 337 345 348 353 357 341 317 315 297 319 330 339 347 352 359 7 9 10 11 12 14 17 17 16 17 17 16 16 17
238 261 262 271 272 264 256 256 251 233 215 216 240 280 308 342 338 341 342 354 340 310 314 289 306 322 331 342 349 358 3 8 9 10 13 13 17 17 18 18 17 17 18 18
242 242 269 276 285 267 257 270 260 251 254 240 187 264 310 325 327 331 331 340 345 309 300 268 292 303 323 338 345 359 4 6 8 14 13 12 18 16 16 19 19 17 17 18
262 255 253 257 281 292 285 290 276 248 244 254 258 290 308 307 316 319 322 330 338 307 287 244 274 289 304 337 352 355 2 5 10 17 15 12 15 15 15 17 18 18 17 16
267 269 269 273 275 282 287 284 277 267 272 260 284 286 309 304 295 308 316 328 328 305 278 234 248 274 274 321 352 357 7 8 12 18 18 13 13 14 14 16 16 15 17 16
268 268 276 280 279 284 284 282 277 272 267 267 272 284 296 275 293 305 313 326 326 299 272 236 231 255 263 297 342 353 9 13 15 16 15 13 9 13 14 15 12 11 14 15
274 274 281 283 290 287 286 288 273 276 278 276 261 284 273 279 291 300 307 320 326 298 266 243 225 241 260 270 306 325 333 11 8 6 8 4 6 9 8 10 7 7 10 11
264 269 270 269 288 272 277 275 284 295 285 283 279 263 256 270 281 292 298 313 322 300 273 251 230 235 251 261 280 305 312 316 330 342 342 344 351 359 0 2 0 1 4 6
253 253 252 246 237 278 283 282 293 308 301 258 271 253 259 266 273 285 289 300 316 302 277 255 236 233 241 255 263 282 298 299 300 309 320 328 334 343 350 353 353 355 359 3
244 245 238 241 236 240 284 290 309 317 316 293 261 249 260 267 271 269 284 288 306 306 284 268 248 237 239 248 258 270 284 296 301 304 310 317 325 331 337 343 347 349 353 357
238 235 234 239 242 263 270 281 285 280 300 295 320 293 275 275 272 276 281 285 292 305 293 278 262 243 243 247 252 258 272 283 292 300 308 316 321 326 330 335 339 343 346 351
252 248 240 233 233 268 283 277 257 270 293 310 315 301 290 282 283 279 278 284 286 293 299 285 274 260 250 251 255 256 258 270 281 291 300 310 317 320 324 329 333 337 340 344
240 244 251 239 256 247 328 348 332 318 290 298 304 300 299 293 283 282 281 282 285 285 293 291 280 273 263 258 258 259 261 266 273 283 293 302 308 312 318 323 327 330 333 337
254 253 253 258 255 257 277 291 306 303 301 285 288 292 293 291 287 280 280 279 281 284 285 290 288 282 271 263 260 260 266 267 272 277 283 289 297 303 308 313 318 322 325 328
253 252 253 258 259 266 272 279 283 288 294 274 273 280 279 280 284 281 277 278 277 280 283 284 288 286 279 275 269 264 267 271 273 276 281 286 290 295 301 306 310 314 316 319
249 251 251 257 262 266 262 258 265 264 273 288 275 269 274 276 280 279 276 277 279 277 280 281 282 287 286 284 277 275 271 271 275 280 283 286 291 295 300 305 308 310 312 314
Height
3160 3161 3160 3159 3158 3157 3156 3155 3153 3151 3149 3146 3143 3142 3141 3139 3138 3138 3136 3135 3134 3131 3128 3125 3123 3121 3119 3117 3115 3112 3108 3105 3101 3097 3092 3088 3083 3077 3071 3065 3057 3048 3042 3034
3160 3159 3159 3158 3157 3156 3155 3153 3151 3149 3147 3144 3140 3138 3137 3136 3136 3136 3134 3133 3132 3129 3126 3123 3122 3120 3119 3117 3114 3111 3107 3103 3099 3094 3090 3086 3080 3075 3069 3062 3055 3047 3038 3029
3157 3158 3157 3157 3156 3155 3154 3152 3150 3149 3145 3142 3139 3135 3135 3135 3135 3134 3132 3131 3130 3127 3124 3122 3120 3120 3118 3115 3112 3110 3106 3102 3098 3093 3089 3085 3079 3075 3070 3063 3053 3044 3037 3030
3156 3155 3156 3155 3154 3154 3153 3151 3149 3146 3145 3143 3141 3138 3133 3134 3134 3132 3130 3129 3127 3124 3123 3121 3120 3119 3117 3114 3112 3109 3105 3101 3097 3093 3089 3084 3079 3074 3067 3060 3051 3043 3036 3029
3156 3154 3154 3154 3153 3153 3153 3150 3147 3144 3142 3141 3140 3140 3132 3132 3132 3129 3128 3126 3124 3122 3121 3120 3119 3118 3116 3113 3111 3107 3104 3100 3096 3092 3088 3083 3078 3072 3067 3060 3053 3045 3038 3031
3153 3153 3152 3152 3151 3151 3150 3149 3145 3142 3141 3141 3140 3141 3132 3131 3130 3128 3126 3123 3122 3121 3119 3119 3118 3116 3114 3112 3110 3107 3103 3100 3096 3092 3088 3082 3078 3072 3067 3061 3054 3047 3039 3032
3151 3150 3150 3150 3150 3150 3149 3148 3145 3144 3143 3142 3139 3137 3131 3130 3129 3126 3124 3121 3119 3118 3118 3118 3116 3115 3113 3112 3109 3106 3103 3099 3096 3092 3087 3082 3077 3072 3066 3061 3054 3048 3041 3034
3150 3149 3148 3148 3149 3149 3148 3148 3148 3148 3148 3142 3137 3133 3130 3129 3127 3125 3121 3118 3117 3117 3117 3116 3116 3114 3112 3110 3108 3105 3102 3098 3095 3091 3087 3082 3077 3072 3066 3061 3054 3047 3041 3034
3148 3147 3146 3146 3146 3148 3146 3147 3148 3147 3146 3144 3135 3132 3129 3127 3125 3123 3119 3117 3116 3116 3115 3115 3114 3113 3111 3109 3107 3104 3101 3098 3095 3091 3087 3082 3078 3073 3067 3061 3055 3049 3043 3037
3147 3146 3145 3144 3144 3145 3145 3147 3146 3145 3148 3144 3133 3130 3127 3126 3124 3121 3118 3116 3115 3115 3114 3113 3112 3111 3109 3108 3106 3103 3100 3097 3094 3090 3087 3083 3078 3074 3068 3062 3057 3051 3045 3039
3145 3145 3145 3144 3142 3141 3143 3143 3143 3144 3145 3145 3144 3128 3126 3124 3122 3119 3117 3116 3113 3113 3112 3112 3110 3109 3108 3106 3104 3102 3099 3096 3093 3090 3087 3084 3079 3074 3069 3064 3059 3053 3047 3041
3143 3142 3141 3142 3140 3139 3139 3140 3140 3141 3142 3141 3141 3128 3124 3122 3120 3118 3116 3114 3112 3111 3111 3109 3108 3107 3106 3104 3103 3102 3099 3096 3093 3091 3087 3084 3080 3074 3070 3065 3060 3054 3048 3042
3141 3140 3139 3137 3140 3137 3136 3136 3137 3137 3137 3135 3137 3124 3121 3121 3119 3116 3114 3112 3110 3109 3108 3107 3106 3105 3105 3103 3102 3100 3098 3095 3094 3091 3088 3084 3079 3075 3071 3066 3061 3055 3049 3043
3139 3138 3138 3137 3136 3136 3134 3133 3133 3133 3132 3128 3121 3119 3120 3119 3116 3113 3111 3109 3108 3106 3105 3105 3104 3104 3103 3102 3100 3098 3097 3095 3093 3091 3087 3083 3080 3076 3072 3068 3062 3056 3051 3045
3136 3134 3134 3133 3132 3130 3129 3128 3127 3124 3124 3122 3115 3114 3116 3116 3113 3111 3109 3107 3105 3104 3102 3102 3102 3102 3101 3100 3099 3097 3096 3094 3093 3090 3086 3083 3079 3077 3073 3068 3063 3058 3053 3047
3132 3130 3129 3128 3128 3126 3121 3121 3119 3116 3113 3111 3110 3108 3111 3110 3109 3108 3106 3104 3102 3101 3099 3099 3099 3099 3099 3099 3098 3096 3094 3093 3092 3089 3086 3083 3079 3076 3072 3069 3064 3059 3054 3048
3129 3127 3126 3123 3124 3121 3114 3112 3110 3107 3106 3106 3104 3106 3106 3106 3105 3105 3103 3101 3100 3098 3097 3096 3096 3096 3096 3096 3095 3094 3092 3090 3089 3087 3085 3081 3078 3075 3072 3069 3065 3060 3055 3051
3123 3124 3124 3121 3122 3120 3109 3107 3106 3104 3103 3101 3100 3101 3102 3102 3102 3101 3100 3099 3097 3096 3094 3094 3093 3093 3093 3093 3093 3092 3091 3089 3086 3085 3083 3080 3077 3075 3072 3069 3065 3060 3056 3052
3118 3120 3121 3119 3117 3110 3106 3104 3103 3099 3096 3096 3097 3098 3098 3098 3098 3098 3097 3096 3095 3094 3092 3091 3090 3090 3090 3090 3090 3090 3089 3088 3085 3083 3081 3079 3076 3074 3071 3068 3065 3061 3057 3053
3112 3114 3116 3115 3113 3109 3104 3102 3100 3099 3095 3093 3093 3095 3095 3095 3094 3095 3094 3093 3092 3091 3090 3088 3087 3087 3087 3086 3086 3087 3086 3086 3084 3082 3080 3078 3075 3072 3069 3067 3063 3060 3057 3053
3105 3106 3106 3108 3107 3100 3101 3100 3099 3100 3099 3094 3094 3094 3093 3092 3092 3092 3091 3090 3089 3088 3087 3086 3085 3084 3083 3082 3082 3082 3083 3083 3082 3080 3078 3077 3074 3072 3069 3066 3062 3059 3055 3052
3102 3102 3100 3103 3104 3098 3096 3095 3096 3096 3094 3094 3093 3091 3091 3090 3089 3088 3088 3087 3086 3085 3083 3083 3082 3081 3080 3079 3079 3079 3079 3078 3078 3076 3075 3074 3072 3070 3068 3065 3061 3057 3053 3049
3094 3095 3097 3096 3094 3093 3093 3094 3094 3094 3093 3091 3090 3089 3088 3087 3086 3085 3085 3084 3083 3082 3081 3080 3079 3078 3078 3077 3076 3076 3075 3075 3073 3073 3072 3070 3068 3066 3065 3062 3059 3055 3052 3048
3085 3088 3087 3089 3088 3090 3090 3090 3091 3090 3089 3088 3087 3086 3085 3083 3082 3081 3081 3080 3080 3079 3078 3077 3075 3075 3074 3073 3073 3072 3071 3070 3070 3069 3067 3066 3064 3062 3060 3058 3055 3053 3050 3046
3080 3080 3077 3077 3081 3085 3086 3085 3084 3083 3082 3081 3081 3081 3080 3079 3078 3077 3077 3076 3076 3075 3074 3073 3073 3071 3071 3070 3069 3068 3067 3066 3066 3064 3063 3062 3061 3058 3056 3054 3052 3049 3045 3042
3070 3070 3070 3069 3077 3075 3078 3078 3078 3077 3077 3076 3075 3075 3075 3074 3073 3072 3072 3072 3072 3071 3070 3070 3069 3068 3067 3066 3065 3064 3063 3062 3061 3061 3059 3058 3057 3055 3053 3050 3048 3045 3042 3039